Location: Howell Woods
(35.3600°N, 78.2900°W)
Time: 08:49:19
(UTC-05:00)

Hubble Space Telescope - Visible Passes

Search period start: 27 November 2021 00:00
Search period end: 07 December 2021 00:00
Orbit: 535 x 538 km, 28.5° (Epoch: 26 November)

Date Brightness Start Highest point End Pass type
(mag) Time Alt. Az. Time Alt. Az. Time Alt. Az.
27 Nov 3.1 04:31:46 20° SE 04:31:46 20° SE 04:33:49 10° ESE visible
27 Nov 2.2 06:07:37 10° WSW 06:11:17 31° S 06:14:56 10° ESE visible
28 Nov 3.4 04:21:25 17° SE 04:21:25 17° SE 04:22:45 10° ESE visible
28 Nov 2.2 05:56:43 12° WSW 06:00:05 31° S 06:03:43 10° ESE visible
29 Nov 3.8 04:11:00 13° ESE 04:11:00 13° ESE 04:11:39 10° ESE visible
29 Nov 2.2 05:46:19 16° WSW 05:48:52 30° S 05:52:29 10° ESE visible
30 Nov 2.2 05:35:52 20° SW 05:37:39 28° S 05:41:13 10° SE visible
01 Dec 2.2 05:25:24 23° SW 05:26:27 26° S 05:29:54 10° SE visible
02 Dec 2.3 05:14:56 24° SSW 05:15:13 24° SSW 05:18:33 10° SE visible
03 Dec 2.6 05:04:28 21° S 05:04:28 21° S 05:07:09 10° SE visible
04 Dec 3.0 04:54:01 16° S 04:54:01 16° S 04:55:40 10° SSE visible
05 Dec 3.5 04:43:35 12° SSE 04:43:35 12° SSE 04:44:04 10° SSE visible
